contact:dominique.lefevre@mio.osupytheas.fr, maurice.libes@osupytheas.fr, didier.mallarino@osupytheas.fr
Project:EMSO http://www.emso-fr.org/EMSO-France
Depth: 2436.0 m
Title:EMSO Ligure Ouest : Data MII capteur AQUADOPP
Date,Latitude,Longitude,X_East,Y_North,Z_Up,Amplitude_X,Amplitude_Y,Amplitude_Z,Batterie,SoundSpeed,Heading,Pitch,Roll,Pressure,TIS,Speed,Direction
, degrees North, degrees East, m.s-1, m.s-1,m.s-1, 1, 1, 1, Volt, m.s-1, degree, degree, degree, dbar, degree_C, m.s-1, degree
2024-05-01T00:04:03,42.805,6.029,-0.03,0.017,-0.02,105.0,103.0,102.0,13.4,1505.2,354.8,-0.8,1.8,2471.733,13.29,0.034,299.5
2024-05-01T00:07:03,42.805,6.029,-0.025,0.034,-0.005,105.0,103.0,102.0,13.4,1505.2,2.7,-0.8,1.8,2471.721,13.29,0.042,323.7
2024-05-01T00:10:03,42.805,6.029,-0.036,0.016,-0.006,104.0,103.0,102.0,13.3,1505.2,1.6,-0.7,1.8,2471.735,13.29,0.039,294.0
2024-05-01T00:13:03,42.805,6.029,-0.02,0.032,0.007,104.0,104.0,101.0,13.3,1505.2,9.1,-0.8,1.8,2471.71,13.29,0.037,328.0
2024-05-01T00:16:03,42.805,6.029,-0.003,0.015,-0.029,106.0,105.0,102.0,13.4,1505.2,8.4,-0.8,1.9,2471.71,13.29,0.015,348.7
2024-05-01T00:19:03,42.805,6.029,-0.009,0.02,-0.014,104.0,104.0,101.0,13.4,1505.2,2.5,-0.8,1.8,2471.707,13.29,0.021,335.8
2024-05-01T00:22:03,42.805,6.029,-0.019,0.031,-0.003,105.0,104.0,102.0,13.4,1505.2,3.9,-0.8,1.8,2471.755,13.29,0.036,328.5
2024-05-01T00:25:03,42.805,6.029,-0.021,0.014,0.006,105.0,103.0,102.0,13.4,1505.2,0.0,-0.7,1.8,2471.735,13.29,0.025,303.7
2024-05-01T00:28:03,42.805,6.029,0.0,0.002,0.012,104.0,104.0,101.0,13.4,1505.2,0.5,-0.7,1.8,2471.742,13.29,0.002,0.0
2024-05-01T00:31:03,42.805,6.029,-0.011,-0.004,-0.022,104.0,103.0,103.0,13.4,1505.2,9.7,-0.7,1.8,2471.745,13.29,0.011,250.0
2024-05-01T00:34:03,42.805,6.029,0.0,0.029,0.017,104.0,103.0,102.0,13.4,1505.2,0.0,-0.7,1.8,2471.733,13.29,0.028,0.0
2024-05-01T00:37:03,42.805,6.029,-0.036,0.01,-0.003,103.0,104.0,102.0,13.4,1505.2,0.5,-0.8,1.8,2471.736,13.29,0.037,285.5
2024-05-01T00:40:03,42.805,6.029,-0.017,0.034,0.011,104.0,102.0,102.0,13.4,1505.2,8.1,-0.8,1.8,2471.713,13.29,0.038,333.4
2024-05-01T00:43:03,42.805,6.029,-0.011,0.027,0.008,105.0,104.0,102.0,13.4,1505.2,0.9,-0.8,1.8,2471.769,13.29,0.029,337.8
2024-05-01T00:46:03,42.805,6.029,-0.016,0.03,0.014,103.0,103.0,102.0,13.3,1505.2,353.0,-0.7,1.8,2471.749,13.29,0.034,331.9
2024-05-01T00:49:03,42.805,6.029,-0.025,0.037,0.027,103.0,104.0,102.0,13.4,1505.2,358.9,-0.8,1.8,2471.738,13.29,0.044,326.0
2024-05-01T00:52:03,42.805,6.029,-0.005,0.029,-0.014,104.0,104.0,102.0,13.4,1505.2,4.4,-0.7,1.8,2471.76,13.29,0.029,350.2
2024-05-01T00:55:03,42.805,6.029,-0.014,0.025,0.023,106.0,103.0,101.0,13.4,1505.2,4.8,-0.8,1.8,2471.71,13.29,0.028,330.7
2024-05-01T00:58:03,42.805,6.029,-0.029,0.024,-0.024,104.0,105.0,102.0,13.4,1505.2,8.5,-0.7,1.8,2471.704,13.29,0.037,309.6
2024-05-01T01:04:03,42.805,6.029,-0.027,0.022,0.003,106.0,107.0,104.0,13.4,1505.2,6.1,-0.8,1.8,2471.799,13.29,0.034,309.2
2024-05-01T01:07:03,42.805,6.029,-0.005,-0.004,0.01,106.0,107.0,103.0,13.4,1505.2,1.6,-0.7,1.8,2471.762,13.29,0.006,231.3
2024-05-01T01:10:03,42.805,6.029,0.013,0.026,0.042,104.0,105.0,103.0,13.3,1505.2,357.3,-0.8,1.8,2471.764,13.29,0.029,26.6
2024-05-01T01:13:03,42.805,6.029,-0.006,0.025,-0.005,105.0,104.0,102.0,13.4,1505.2,358.9,-0.7,1.8,2471.755,13.29,0.025,346.5
2024-05-01T01:16:03,42.805,6.029,-0.026,0.014,-0.002,103.0,104.0,102.0,13.4,1505.2,359.4,-0.8,1.8,2471.723,13.29,0.029,298.3
2024-05-01T01:19:03,42.805,6.029,-0.012,0.014,0.018,102.0,104.0,101.0,13.4,1505.2,9.6,-0.7,1.8,2471.789,13.29,0.018,319.4
2024-05-01T01:22:03,42.805,6.029,-0.016,0.025,0.019,103.0,104.0,101.0,13.4,1505.2,357.8,-0.8,1.8,2471.761,13.29,0.029,327.4
2024-05-01T01:25:03,42.805,6.029,-0.015,0.04,0.001,105.0,103.0,102.0,13.4,1505.2,7.8,-0.8,1.8,2471.737,13.29,0.042,339.4
2024-05-01T01:28:03,42.805,6.029,-0.011,0.034,0.003,104.0,105.0,102.0,13.4,1505.2,4.3,-0.7,1.8,2471.737,13.29,0.035,342.1
2024-05-01T01:31:03,42.805,6.029,-0.024,0.027,0.001,104.0,104.0,102.0,13.3,1505.2,358.4,-0.8,1.8,2471.694,13.29,0.036,318.4
2024-05-01T01:34:03,42.805,6.029,-0.017,0.037,-0.005,104.0,103.0,102.0,13.4,1505.2,5.5,-0.8,1.8,2471.73,13.29,0.04,335.3
2024-05-01T01:37:03,42.805,6.029,-0.006,0.026,0.011,105.0,104.0,102.0,13.4,1505.2,0.4,-0.8,1.9,2471.749,13.29,0.026,347.0
2024-05-01T01:40:03,42.805,6.029,0.004,0.038,-0.001,104.0,105.0,102.0,13.4,1505.2,358.4,-0.7,1.8,2471.724,13.29,0.038,6.0
2024-05-01T01:43:03,42.805,6.029,-0.022,0.041,0.027,104.0,104.0,102.0,13.4,1505.2,4.5,-0.8,1.8,2471.727,13.29,0.046,331.8
2024-05-01T01:46:03,42.805,6.029,-0.018,0.033,0.003,105.0,104.0,102.0,13.4,1505.2,0.0,-0.7,1.8,2471.709,13.29,0.037,331.4
2024-05-01T01:49:03,42.805,6.029,-0.008,0.029,0.03,105.0,104.0,102.0,13.4,1505.2,9.0,-0.7,1.8,2471.741,13.29,0.03,344.6
2024-05-01T01:52:03,42.805,6.029,0.022,0.019,0.011,105.0,103.0,102.0,13.3,1505.2,9.0,-0.7,1.8,2471.736,13.29,0.029,49.2
2024-05-01T01:55:03,42.805,6.029,-0.025,0.031,-0.027,105.0,105.0,101.0,13.4,1505.2,8.8,-0.7,1.8,2471.748,13.29,0.039,321.1
2024-05-01T01:58:03,42.805,6.029,-0.01,0.005,0.013,106.0,106.0,101.0,13.4,1505.2,355.1,-0.8,1.8,2471.727,13.29,0.011,296.6
2024-05-01T02:04:03,42.805,6.029,-0.001,0.021,-0.023,103.0,104.0,102.0,13.3,1505.2,2.5,-0.7,1.8,2471.756,13.29,0.021,357.3
2024-05-01T02:07:03,42.805,6.029,-0.005,0.019,0.013,104.0,105.0,101.0,13.4,1505.2,3.8,-0.7,1.8,2471.727,13.29,0.019,345.3
2024-05-01T02:10:03,42.805,6.029,-0.014,0.034,0.003,104.0,103.0,102.0,13.4,1505.2,10.3,-0.7,1.8,2471.715,13.29,0.036,337.6
2024-05-01T02:13:03,42.805,6.029,-0.006,0.031,0.029,104.0,105.0,102.0,13.3,1505.2,355.3,-0.7,1.8,2471.734,13.29,0.031,349.0
2024-05-01T02:16:03,42.805,6.029,0.013,0.007,0.038,104.0,105.0,101.0,13.3,1505.2,5.4,-0.8,1.8,2471.758,13.29,0.014,61.7
2024-05-01T02:19:03,42.805,6.029,-0.004,0.015,-0.001,104.0,104.0,102.0,13.3,1505.2,0.0,-0.7,1.8,2471.702,13.29,0.015,345.1
2024-05-01T02:22:03,42.805,6.029,-0.007,0.019,0.0,104.0,105.0,102.0,13.4,1505.2,9.4,-0.8,1.8,2471.744,13.29,0.02,339.8
2024-05-01T02:25:03,42.805,6.029,0.012,0.028,0.011,104.0,103.0,101.0,13.3,1505.2,2.5,-0.7,1.8,2471.75,13.29,0.03,23.2
2024-05-01T02:28:03,42.805,6.029,0.0,0.006,-0.01,106.0,102.0,101.0,13.4,1505.2,355.2,-0.8,1.8,2471.7,13.29,0.006,0.0
2024-05-01T02:31:03,42.805,6.029,-0.015,0.02,0.003,104.0,104.0,102.0,13.4,1505.2,6.3,-0.7,1.8,2471.703,13.29,0.025,323.1
2024-05-01T02:34:03,42.805,6.029,-0.004,0.031,0.037,104.0,104.0,103.0,13.4,1505.2,1.6,-0.8,1.8,2471.723,13.29,0.031,352.7
2024-05-01T02:37:03,42.805,6.029,0.017,0.028,0.029,104.0,104.0,102.0,13.4,1505.2,0.0,-0.8,1.8,2471.704,13.29,0.032,31.3
2024-05-01T02:40:03,42.805,6.029,0.001,0.036,-0.009,105.0,104.0,102.0,13.4,1505.2,358.9,-0.8,1.8,2471.692,13.29,0.036,1.6
2024-05-01T02:43:03,42.805,6.029,0.009,0.017,0.004,104.0,105.0,101.0,13.4,1505.2,357.8,-0.8,1.8,2471.697,13.29,0.019,27.9
2024-05-01T02:46:03,42.805,6.029,0.007,0.02,0.026,103.0,106.0,101.0,13.3,1505.2,7.8,-0.7,1.8,2471.689,13.29,0.021,19.3
2024-05-01T02:49:03,42.805,6.029,-0.01,0.017,0.011,103.0,106.0,101.0,13.3,1505.2,8.7,-0.8,1.8,2471.749,13.29,0.019,329.5
2024-05-01T02:52:03,42.805,6.029,0.005,0.011,0.003,102.0,106.0,101.0,13.4,1505.2,4.0,-0.8,1.8,2471.704,13.29,0.012,24.4
2024-05-01T02:55:03,42.805,6.029,-0.026,0.033,-0.005,103.0,104.0,101.0,13.4,1505.2,2.8,-0.7,1.8,2471.687,13.29,0.042,321.8
2024-05-01T02:58:03,42.805,6.029,0.006,0.043,0.013,103.0,105.0,101.0,13.4,1505.2,6.0,-0.8,1.8,2471.663,13.29,0.043,7.9
2024-05-01T03:04:03,42.805,6.029,-0.02,0.051,0.012,104.0,104.0,102.0,13.4,1505.2,356.9,-0.8,1.8,2471.722,13.29,0.054,338.6
2024-05-01T03:07:03,42.805,6.029,-0.001,0.016,0.024,103.0,104.0,102.0,13.4,1505.2,357.9,-0.8,1.8,2471.713,13.29,0.016,356.4
2024-05-01T03:10:03,42.805,6.029,-0.005,0.022,0.027,103.0,104.0,101.0,13.4,1505.2,359.4,-0.8,1.8,2471.7,13.29,0.022,347.2
2024-05-01T03:13:03,42.805,6.029,0.005,0.011,0.022,104.0,104.0,101.0,13.4,1505.2,358.9,-0.8,1.8,2471.715,13.29,0.012,24.4
2024-05-01T03:16:03,42.805,6.029,0.001,0.022,0.056,104.0,104.0,101.0,13.3,1505.2,4.4,-0.8,1.8,2471.74,13.29,0.022,2.6
2024-05-01T03:19:03,42.805,6.029,-0.008,0.032,-0.01,105.0,105.0,100.0,13.4,1505.2,2.0,-0.8,1.8,2471.69,13.29,0.032,346.0
2024-05-01T03:22:03,42.805,6.029,0.012,0.012,0.03,103.0,103.0,101.0,13.3,1505.2,359.4,-0.7,1.8,2471.707,13.29,0.016,45.0
2024-05-01T03:25:03,42.805,6.029,-0.005,0.027,0.007,103.0,103.0,102.0,13.4,1505.2,7.6,-0.7,1.8,2471.673,13.29,0.027,349.5
2024-05-01T03:28:03,42.805,6.029,-0.006,0.021,0.016,104.0,102.0,101.0,13.4,1505.2,355.9,-0.7,1.8,2471.659,13.29,0.021,344.1
2024-05-01T03:31:03,42.805,6.029,0.0,0.013,-0.006,104.0,104.0,101.0,13.4,1505.2,0.5,-0.7,1.8,2471.693,13.29,0.013,0.0
2024-05-01T03:34:03,42.805,6.029,0.017,0.023,0.034,103.0,105.0,102.0,13.4,1505.2,0.0,-0.7,1.8,2471.669,13.29,0.028,36.5
2024-05-01T03:37:03,42.805,6.029,0.01,-0.009,0.014,103.0,105.0,101.0,13.3,1505.2,9.7,-0.8,1.8,2471.672,13.29,0.013,132.0
2024-05-01T03:40:03,42.805,6.029,0.011,0.022,0.023,104.0,103.0,103.0,13.3,1505.2,356.9,-0.8,1.8,2471.684,13.29,0.024,26.6
2024-05-01T03:43:03,42.805,6.029,-0.001,0.038,0.001,103.0,105.0,102.0,13.4,1505.2,1.0,-0.7,1.8,2471.717,13.29,0.038,358.5
2024-05-01T03:46:03,42.805,6.029,-0.009,0.016,0.015,104.0,104.0,102.0,13.4,1505.2,355.5,-0.8,1.8,2471.669,13.29,0.018,330.6
2024-05-01T03:49:03,42.805,6.029,-0.03,0.031,0.007,102.0,104.0,103.0,13.4,1505.2,5.4,-0.7,1.8,2471.685,13.29,0.043,315.9
2024-05-01T03:52:03,42.805,6.029,0.023,0.022,0.028,106.0,104.0,102.0,13.3,1505.2,359.4,-0.7,1.8,2471.683,13.29,0.031,46.3
2024-05-01T03:55:03,42.805,6.029,0.013,0.031,0.016,106.0,103.0,102.0,13.3,1505.2,358.4,-0.8,1.8,2471.665,13.29,0.033,22.7
2024-05-01T03:58:03,42.805,6.029,0.018,0.019,0.033,104.0,106.0,101.0,13.3,1505.2,9.2,-0.8,1.8,2471.66,13.29,0.026,43.5
2024-05-01T04:04:03,42.805,6.029,0.018,0.023,0.042,104.0,104.0,102.0,13.3,1505.2,2.4,-0.8,1.8,2471.665,13.29,0.029,38.0
2024-05-01T04:07:03,42.805,6.029,0.015,0.014,0.005,103.0,105.0,102.0,13.3,1505.2,2.9,-0.8,1.8,2471.657,13.29,0.02,47.0
2024-05-01T04:10:03,42.805,6.029,-0.004,0.014,0.015,103.0,105.0,102.0,13.4,1505.2,353.9,-0.8,1.9,2471.695,13.29,0.014,344.1
2024-05-01T04:13:03,42.805,6.029,-0.001,0.019,0.023,104.0,104.0,102.0,13.3,1505.2,3.8,-0.8,1.8,2471.672,13.29,0.019,357.0
2024-05-01T04:16:03,42.805,6.029,0.012,0.021,0.016,105.0,106.0,102.0,13.4,1505.2,358.3,-0.8,1.8,2471.704,13.29,0.024,29.7
2024-05-01T04:19:03,42.805,6.029,0.018,0.01,0.019,104.0,106.0,101.0,13.3,1505.2,7.3,-0.7,1.8,2471.705,13.29,0.02,60.9
2024-05-01T04:22:03,42.805,6.029,0.008,0.039,0.024,104.0,105.0,102.0,13.4,1505.2,357.4,-0.7,1.8,2471.642,13.29,0.039,11.6
2024-05-01T04:25:03,42.805,6.029,0.009,0.012,0.006,105.0,106.0,101.0,13.4,1505.2,359.5,-0.8,1.8,2471.655,13.29,0.015,36.9
2024-05-01T04:28:03,42.805,6.029,-0.001,0.032,0.032,104.0,106.0,102.0,13.4,1505.2,354.8,-0.8,1.8,2471.665,13.29,0.032,358.2
2024-05-01T04:31:03,42.805,6.029,0.003,0.017,0.031,105.0,105.0,101.0,13.4,1505.2,358.3,-0.8,1.8,2471.604,13.29,0.017,10.0
2024-05-01T04:34:03,42.805,6.029,0.008,0.008,-0.006,104.0,105.0,103.0,13.4,1505.2,5.0,-0.8,1.8,2471.667,13.29,0.011,45.0
2024-05-01T04:37:03,42.805,6.029,-0.001,0.015,0.012,104.0,106.0,102.0,13.3,1505.2,9.8,-0.8,1.8,2471.683,13.29,0.015,356.2
2024-05-01T04:40:03,42.805,6.029,0.009,0.012,0.032,104.0,105.0,101.0,13.3,1505.2,5.8,-0.8,1.8,2471.654,13.29,0.015,36.9
2024-05-01T04:43:03,42.805,6.029,0.002,0.009,0.008,105.0,105.0,102.0,13.4,1505.2,1.5,-0.7,1.8,2471.639,13.29,0.009,12.5
2024-05-01T04:46:03,42.805,6.029,-0.002,0.002,-0.013,105.0,104.0,102.0,13.4,1505.2,3.7,-0.8,1.8,2471.642,13.29,0.002,315.0
2024-05-01T04:49:03,42.805,6.029,0.025,0.005,-0.005,103.0,106.0,101.0,13.4,1505.2,359.4,-0.8,1.8,2471.653,13.29,0.025,78.7
2024-05-01T04:52:03,42.805,6.029,0.014,0.006,0.019,105.0,105.0,102.0,13.3,1505.2,357.2,-0.7,1.8,2471.645,13.29,0.015,66.8
2024-05-01T04:55:03,42.805,6.029,0.005,0.009,0.04,105.0,106.0,102.0,13.3,1505.2,9.2,-0.8,1.8,2471.64,13.29,0.01,29.1
2024-05-01T04:58:03,42.805,6.029,0.024,0.01,0.008,104.0,107.0,101.0,13.3,1505.2,356.4,-0.7,1.8,2471.66,13.29,0.026,67.4
2024-05-01T05:04:03,42.805,6.029,0.0,0.012,0.007,105.0,106.0,103.0,13.3,1505.2,4.8,-0.8,1.8,2471.665,13.29,0.012,0.0
2024-05-01T05:07:03,42.805,6.029,0.004,0.0,0.013,104.0,105.0,101.0,13.4,1505.2,5.2,-0.7,1.8,2471.669,13.29,0.004,90.0
2024-05-01T05:10:03,42.805,6.029,0.013,-0.001,0.013,103.0,105.0,101.0,13.4,1505.2,5.2,-0.8,1.8,2471.659,13.29,0.013,94.4
2024-05-01T05:13:03,42.805,6.029,0.012,0.016,0.034,103.0,105.0,102.0,13.4,1505.2,6.7,-0.8,1.8,2471.669,13.29,0.02,36.9
2024-05-01T05:16:03,42.805,6.029,0.024,-0.001,0.017,103.0,105.0,101.0,13.4,1505.2,7.7,-0.8,1.8,2471.666,13.29,0.024,92.4
2024-05-01T05:19:03,42.805,6.029,0.003,0.004,0.005,104.0,105.0,101.0,13.4,1505.2,353.3,-0.7,1.8,2471.644,13.29,0.005,36.9
2024-05-01T05:22:03,42.805,6.029,0.009,0.005,0.015,104.0,106.0,101.0,13.3,1505.2,5.8,-0.8,1.8,2471.647,13.29,0.01,60.9
2024-05-01T05:25:03,42.805,6.029,0.002,0.013,-0.017,104.0,106.0,101.0,13.3,1505.2,1.0,-0.7,1.8,2471.617,13.29,0.013,8.7
2024-05-01T05:28:03,42.805,6.029,0.012,0.006,0.0,105.0,105.0,101.0,13.4,1505.2,9.7,-0.8,1.8,2471.635,13.29,0.013,63.4
2024-05-01T05:31:03,42.805,6.029,0.01,0.002,0.025,105.0,104.0,102.0,13.3,1505.2,2.7,-0.8,1.8,2471.634,13.29,0.01,78.7
2024-05-01T05:34:03,42.805,6.029,0.02,-0.006,0.026,104.0,106.0,102.0,13.3,1505.2,9.5,-0.8,1.8,2471.659,13.29,0.02,106.7
2024-05-01T05:37:03,42.805,6.029,0.006,0.013,0.0,104.0,106.0,101.0,13.4,1505.2,0.0,-0.8,1.8,2471.663,13.29,0.014,24.8
2024-05-01T05:40:03,42.805,6.029,0.005,0.016,0.011,104.0,106.0,102.0,13.4,1505.2,355.8,-0.7,1.8,2471.629,13.29,0.016,17.4
2024-05-01T05:43:03,42.805,6.029,-0.008,0.031,0.022,105.0,104.0,102.0,13.4,1505.2,4.0,-0.8,1.8,2471.649,13.29,0.032,345.5
2024-05-01T05:46:03,42.805,6.029,0.015,0.012,0.015,105.0,106.0,102.0,13.4,1505.2,0.0,-0.8,1.8,2471.611,13.29,0.019,51.3
2024-05-01T05:49:03,42.805,6.029,0.02,-0.003,0.063,105.0,106.0,101.0,13.3,1505.2,353.6,-0.8,1.8,2471.623,13.29,0.02,98.5
2024-05-01T05:52:03,42.805,6.029,0.011,0.009,0.011,104.0,106.0,101.0,13.3,1505.2,5.5,-0.8,1.8,2471.66,13.29,0.014,50.7
2024-05-01T05:55:03,42.805,6.029,0.022,-0.008,0.009,104.0,106.0,102.0,13.3,1505.2,10.0,-0.7,1.8,2471.614,13.29,0.023,110.0
2024-05-01T05:58:03,42.805,6.029,0.016,0.012,0.027,104.0,107.0,101.0,13.3,1505.2,358.4,-0.8,1.8,2471.595,13.29,0.02,53.1
2024-05-01T06:04:03,42.805,6.029,0.008,-0.007,0.012,104.0,106.0,101.0,13.4,1505.2,359.4,-0.8,1.8,2471.641,13.29,0.01,131.2
2024-05-01T06:07:03,42.805,6.029,0.014,0.0,0.013,104.0,106.0,101.0,13.3,1505.2,8.9,-0.8,1.8,2471.614,13.29,0.014,90.0
2024-05-01T06:10:03,42.805,6.029,-0.002,0.003,0.012,104.0,106.0,103.0,13.4,1505.2,355.3,-0.8,1.8,2471.642,13.29,0.003,326.3
2024-05-01T06:13:03,42.805,6.029,0.008,0.005,0.007,105.0,105.0,101.0,13.4,1505.2,7.0,-0.8,1.8,2471.653,13.29,0.009,58.0
2024-05-01T06:16:03,42.805,6.029,0.02,0.004,0.028,104.0,105.0,103.0,13.3,1505.2,2.5,-0.8,1.8,2471.666,13.29,0.02,78.7
2024-05-01T06:19:03,42.805,6.029,0.019,-0.002,0.005,104.0,106.0,101.0,13.3,1505.2,357.4,-0.7,1.8,2471.601,13.29,0.019,96.0
2024-05-01T06:22:03,42.805,6.029,-0.003,0.007,0.01,103.0,105.0,101.0,13.4,1505.2,5.4,-0.8,1.8,2471.612,13.29,0.007,336.8
2024-05-01T06:25:03,42.805,6.029,0.018,-0.032,0.015,102.0,105.0,102.0,13.4,1505.2,0.5,-0.8,1.8,2471.612,13.29,0.036,150.6
2024-05-01T06:28:03,42.805,6.029,0.01,0.024,-0.002,105.0,104.0,102.0,13.3,1505.2,357.8,-0.8,1.8,2471.595,13.29,0.026,22.6
2024-05-01T06:31:03,42.805,6.029,0.017,0.0,0.039,104.0,105.0,103.0,13.4,1505.2,8.6,-0.7,1.8,2471.614,13.29,0.017,90.0
2024-05-01T06:34:03,42.805,6.029,0.011,-0.024,0.03,104.0,104.0,102.0,13.4,1505.2,357.4,-0.7,1.8,2471.595,13.29,0.026,155.4
2024-05-01T06:37:03,42.805,6.029,0.025,-0.027,0.001,103.0,105.0,103.0,13.3,1505.2,4.5,-0.8,1.8,2471.615,13.29,0.036,137.2
2024-05-01T06:40:03,42.805,6.029,0.015,0.0,0.036,104.0,106.0,103.0,13.4,1505.2,353.0,-0.7,1.8,2471.589,13.29,0.015,90.0
2024-05-01T06:43:03,42.805,6.029,0.017,-0.014,-0.01,104.0,104.0,102.0,13.4,1505.2,1.1,-0.7,1.8,2471.593,13.29,0.022,129.5
2024-05-01T06:46:03,42.805,6.029,0.021,-0.04,0.037,106.0,104.0,101.0,13.4,1505.2,357.8,-0.7,1.8,2471.571,13.29,0.045,152.3
2024-05-01T06:49:03,42.805,6.029,0.012,-0.001,0.028,105.0,105.0,101.0,13.3,1505.2,9.6,-0.8,1.8,2471.547,13.29,0.012,94.8
2024-05-01T06:52:03,42.805,6.029,0.025,-0.007,0.02,103.0,106.0,103.0,13.4,1505.2,2.5,-0.8,1.8,2471.576,13.29,0.025,105.6
2024-05-01T06:55:03,42.805,6.029,0.036,0.004,0.022,104.0,106.0,101.0,13.3,1505.2,355.0,-0.7,1.8,2471.564,13.29,0.036,83.7
2024-05-01T06:58:03,42.805,6.029,0.034,0.003,0.037,104.0,105.0,101.0,13.4,1505.2,1.0,-0.8,1.8,2471.579,13.29,0.034,85.0
2024-05-01T07:04:03,42.805,6.029,0.023,-0.018,-0.013,104.0,104.0,102.0,13.3,1505.2,357.7,-0.8,1.8,2471.591,13.29,0.029,128.0
2024-05-01T07:07:03,42.805,6.029,0.024,0.004,0.033,105.0,105.0,102.0,13.4,1505.2,357.8,-0.7,1.8,2471.627,13.29,0.024,80.5
2024-05-01T07:10:03,42.805,6.029,0.008,-0.007,0.0,103.0,105.0,101.0,13.4,1505.2,355.8,-0.8,1.8,2471.643,13.29,0.01,131.2
2024-05-01T07:13:03,42.805,6.029,0.0,-0.016,0.025,104.0,104.0,102.0,13.3,1505.2,5.2,-0.7,1.8,2471.599,13.29,0.016,180.0
2024-05-01T07:16:03,42.805,6.029,0.016,-0.011,0.024,104.0,104.0,101.0,13.4,1505.2,5.4,-0.8,1.8,2471.607,13.29,0.019,124.5
2024-05-01T07:19:03,42.805,6.029,0.01,-0.031,0.02,105.0,103.0,100.0,13.4,1505.2,9.6,-0.8,1.8,2471.574,13.29,0.032,162.1
2024-05-01T07:22:03,42.805,6.029,0.005,-0.008,0.052,104.0,104.0,100.0,13.4,1505.2,356.8,-0.7,1.8,2471.586,13.29,0.009,148.0
2024-05-01T07:25:03,42.805,6.029,0.007,-0.003,-0.017,105.0,104.0,101.0,13.3,1505.2,3.3,-0.7,1.8,2471.579,13.29,0.007,113.2
2024-05-01T07:28:03,42.805,6.029,0.026,-0.008,0.006,104.0,104.0,101.0,13.4,1505.2,6.0,-0.8,1.8,2471.593,13.29,0.027,107.1
2024-05-01T07:31:03,42.805,6.029,0.014,-0.021,0.041,104.0,104.0,102.0,13.3,1505.2,3.5,-0.7,1.8,2471.579,13.29,0.025,146.3
2024-05-01T07:34:03,42.805,6.029,0.018,-0.058,0.02,104.0,104.0,102.0,13.4,1505.2,9.0,-0.8,1.8,2471.561,13.29,0.06,162.8
2024-05-01T07:37:03,42.805,6.029,0.021,-0.012,0.017,104.0,105.0,103.0,13.4,1505.2,353.9,-0.7,1.8,2471.566,13.29,0.024,119.7
2024-05-01T07:40:03,42.805,6.029,0.002,-0.012,0.03,104.0,104.0,102.0,13.3,1505.2,1.1,-0.8,1.8,2471.545,13.29,0.012,170.5
2024-05-01T07:43:03,42.805,6.029,0.014,-0.013,0.027,104.0,105.0,102.0,13.4,1505.2,7.9,-0.8,1.8,2471.562,13.29,0.019,132.9
2024-05-01T07:46:03,42.805,6.029,0.002,-0.018,-0.004,104.0,104.0,102.0,13.4,1505.2,0.5,-0.7,1.8,2471.555,13.29,0.018,173.7
2024-05-01T07:49:03,42.805,6.029,0.012,0.002,0.02,105.0,104.0,101.0,13.3,1505.2,4.1,-0.7,1.8,2471.544,13.29,0.012,80.5
2024-05-01T07:52:03,42.805,6.029,0.024,-0.025,0.0,106.0,104.0,103.0,13.4,1505.2,6.0,-0.7,1.8,2471.564,13.29,0.034,136.2
2024-05-01T07:55:03,42.805,6.029,0.023,0.001,0.027,103.0,105.0,102.0,13.3,1505.2,8.2,-0.7,1.8,2471.568,13.29,0.023,87.5
2024-05-01T07:58:03,42.805,6.029,0.023,0.003,0.037,103.0,105.0,101.0,13.3,1505.2,356.1,-0.7,1.8,2471.535,13.29,0.023,82.6
2024-05-01T09:04:03,42.805,6.029,0.012,-0.013,0.024,104.0,104.0,102.0,13.4,1505.2,6.2,-0.8,1.8,2472.018,13.28,0.017,137.3
2024-05-01T09:07:03,42.805,6.029,0.017,-0.035,-0.005,103.0,103.0,102.0,13.3,1505.2,3.2,-0.7,1.8,2471.949,13.28,0.038,154.1
2024-05-01T09:10:03,42.805,6.029,0.007,-0.017,0.04,105.0,103.0,102.0,13.4,1505.2,4.9,-0.8,1.8,2471.947,13.28,0.018,157.6
2024-05-01T09:13:03,42.805,6.029,0.028,-0.025,0.004,104.0,104.0,102.0,13.4,1505.2,7.0,-0.8,1.8,2471.864,13.29,0.037,131.8
2024-05-01T09:16:03,42.805,6.029,0.026,-0.016,0.025,104.0,104.0,102.0,13.4,1505.2,358.9,-0.8,1.8,2471.824,13.29,0.03,121.6
2024-05-01T09:19:03,42.805,6.029,0.023,-0.011,0.031,104.0,103.0,101.0,13.3,1505.2,2.7,-0.8,1.8,2471.769,13.29,0.025,115.6
2024-05-01T09:22:03,42.805,6.029,0.02,-0.016,0.017,104.0,104.0,102.0,13.4,1505.2,356.4,-0.8,1.8,2471.757,13.29,0.025,128.7
2024-05-01T09:25:03,42.805,6.029,0.027,0.007,0.03,103.0,105.0,103.0,13.4,1505.2,2.2,-0.8,1.8,2471.701,13.29,0.027,75.5
2024-05-01T09:28:03,42.805,6.029,0.017,-0.028,-0.007,103.0,105.0,101.0,13.4,1505.2,6.1,-0.8,1.8,2471.706,13.29,0.032,148.7
2024-05-01T09:31:03,42.805,6.029,0.019,0.0,-0.002,103.0,103.0,101.0,13.3,1505.2,9.1,-0.8,1.8,2471.676,13.29,0.019,90.0
2024-05-01T09:34:03,42.805,6.029,0.024,-0.024,0.002,103.0,105.0,102.0,13.4,1505.2,354.1,-0.7,1.8,2471.656,13.29,0.033,135.0
2024-05-01T09:37:03,42.805,6.029,0.017,-0.038,0.014,104.0,104.0,102.0,13.4,1505.2,358.8,-0.7,1.8,2471.629,13.29,0.041,155.9
2024-05-01T09:40:03,42.805,6.029,0.025,-0.011,0.027,103.0,105.0,102.0,13.4,1505.2,359.4,-0.7,1.8,2471.645,13.29,0.027,113.7
2024-05-01T09:43:03,42.805,6.029,0.01,-0.011,-0.014,105.0,105.0,101.0,13.4,1505.2,5.4,-0.7,1.8,2471.604,13.29,0.014,137.7
2024-05-01T09:46:03,42.805,6.029,0.008,-0.038,-0.01,104.0,104.0,102.0,13.4,1505.2,4.4,-0.8,1.9,2471.605,13.29,0.038,168.1
2024-05-01T09:49:03,42.805,6.029,-0.01,-0.018,0.006,105.0,103.0,102.0,13.4,1505.2,356.2,-0.7,1.8,2471.601,13.29,0.02,209.1
2024-05-01T09:52:03,42.805,6.029,0.013,-0.02,0.0,105.0,104.0,101.0,13.4,1505.2,355.6,-0.8,1.8,2471.606,13.29,0.023,147.0
2024-05-01T09:55:03,42.805,6.029,0.011,-0.013,0.013,103.0,104.0,102.0,13.3,1505.2,355.7,-0.8,1.8,2471.586,13.29,0.017,139.8
2024-05-01T09:58:03,42.805,6.029,0.015,-0.017,0.013,104.0,105.0,102.0,13.4,1505.2,355.1,-0.7,1.8,2471.616,13.29,0.022,138.6
2024-05-01T10:04:03,42.805,6.029,0.005,-0.009,0.028,104.0,104.0,102.0,13.4,1505.2,354.4,-0.8,1.8,2471.607,13.29,0.01,150.9
2024-05-01T10:07:03,42.805,6.029,0.028,-0.007,-0.019,104.0,102.0,101.0,13.4,1505.2,355.6,-0.8,1.8,2471.552,13.29,0.028,104.0
2024-05-01T10:10:03,42.805,6.029,0.007,-0.019,0.016,104.0,103.0,102.0,13.4,1505.2,356.1,-0.7,1.8,2471.6,13.29,0.02,159.8
2024-05-01T10:13:03,42.805,6.029,0.025,0.0,0.025,104.0,103.0,101.0,13.4,1505.2,355.6,-0.8,1.9,2471.577,13.29,0.025,90.0
2024-05-01T10:16:03,42.805,6.029,0.003,0.007,-0.004,104.0,103.0,102.0,13.4,1505.2,0.5,-0.7,1.8,2471.58,13.29,0.007,23.2
2024-05-01T10:19:03,42.805,6.029,0.024,-0.007,0.033,105.0,103.0,102.0,13.3,1505.2,1.6,-0.7,1.8,2471.592,13.29,0.025,106.3
2024-05-01T10:22:03,42.805,6.029,0.011,0.0,0.027,104.0,103.0,101.0,13.3,1505.2,7.6,-0.8,1.8,2471.59,13.29,0.011,90.0
2024-05-01T10:25:03,42.805,6.029,0.021,-0.014,0.016,104.0,104.0,101.0,13.4,1505.2,355.1,-0.8,1.8,2471.593,13.29,0.025,123.7
2024-05-01T10:28:03,42.805,6.029,0.02,-0.012,0.018,104.0,106.0,101.0,13.4,1505.2,5.9,-0.7,1.8,2471.58,13.29,0.023,121.0
2024-05-01T10:31:03,42.805,6.029,0.01,0.008,0.013,104.0,104.0,102.0,13.3,1505.2,359.4,-0.8,1.8,2471.593,13.29,0.012,51.3
2024-05-01T10:34:03,42.805,6.029,0.011,-0.03,0.022,104.0,103.0,102.0,13.4,1505.2,9.0,-0.7,1.8,2471.601,13.29,0.031,159.9
2024-05-01T10:37:03,42.805,6.029,0.025,-0.03,-0.013,105.0,103.0,101.0,13.4,1505.2,354.5,-0.8,1.8,2471.569,13.29,0.039,140.2
2024-05-01T10:40:03,42.805,6.029,-0.022,-0.013,-0.012,105.0,103.0,102.0,13.4,1505.2,359.4,-0.7,1.8,2471.569,13.29,0.025,239.4
2024-05-01T10:43:03,42.805,6.029,-0.003,0.021,0.008,103.0,104.0,102.0,13.4,1505.2,2.0,-0.7,1.8,2471.589,13.29,0.021,351.9
2024-05-01T10:46:03,42.805,6.029,0.016,-0.005,0.003,104.0,104.0,102.0,13.4,1505.2,9.0,-0.8,1.8,2471.597,13.29,0.016,107.4
2024-05-01T10:49:03,42.805,6.029,0.017,-0.021,0.002,104.0,104.0,102.0,13.4,1505.2,354.1,-0.8,1.8,2471.588,13.29,0.027,141.0
2024-05-01T10:52:03,42.805,6.029,-0.008,-0.004,0.01,103.0,103.0,102.0,13.4,1505.2,2.2,-0.8,1.8,2471.57,13.29,0.008,243.4
2024-05-01T10:55:03,42.805,6.029,0.017,-0.018,0.002,104.0,103.0,103.0,13.4,1505.2,6.0,-0.8,1.8,2471.563,13.29,0.024,136.6
2024-05-01T10:58:03,42.805,6.029,0.024,-0.021,0.007,106.0,103.0,102.0,13.3,1505.2,9.8,-0.8,1.8,2471.554,13.29,0.031,131.2
2024-05-01T11:04:03,42.805,6.029,0.012,-0.019,0.013,104.0,105.0,101.0,13.4,1505.2,6.8,-0.8,1.8,2471.61,13.29,0.022,147.7
2024-05-01T11:07:03,42.805,6.029,0.039,-0.004,0.025,104.0,104.0,102.0,13.3,1505.2,2.7,-0.7,1.8,2471.633,13.29,0.039,95.9
2024-05-01T11:10:03,42.805,6.029,0.019,-0.022,-0.024,104.0,105.0,104.0,13.4,1505.2,8.9,-0.8,1.8,2471.585,13.29,0.029,139.2